Location: *
(42.0175°N, 9.4056°E)
Time: 09:01:40
(UTC+00:00)

Cosmos 1975 Rocket - Pass Details

Date: 25 August 2019
Orbit: 605 x 633 km, 82.5° (Epoch: 17 September)

Event Time Altitude Azimuth Distance (km) Brightness Sun altitude
Rises 19:43:30 0° 1° (N) 2,916 7.0 -17.0°
Reaches altitude 10° 19:45:56 10° 11° (N) 2,009 6.0 -17.4°
Maximum altitude 19:49:58 33° 76° (ENE) 1,056 3.9 -18.0°
Enters shadow 19:50:29 32° 91° (E) 1,078 3.8 -18.1°
